GFSGL_con_lsi_057.txt.gz
Lid_Strength_Index
14 14 14 14 14 14 14 14 14 14 14 14 14 14 14 14 14 14 14 14 14 14 14 14 14 14 14 14 13 13 14 13 16 14 13 13 13 13 12 12 11 11 11
14 14 14 14 14 14 14 14 14 14 14 14 14 14 14 14 14 14 15 14 15 15 14 14 14 14 14 14 14 14 14 14 14 16 14 13 13 12 12 13 12 12 12
14 14 14 14 14 14 14 14 14 14 15 15 15 16 16 16 16 16 16 16 16 15 15 15 15 14 14 14 14 14 14 14 14 15 15 14 14 13 12 12 12 12 12
14 14 14 14 14 14 15 15 15 16 16 16 16 17 17 17 17 17 16 16 16 16 16 16 16 16 16 15 15 14 14 14 14 15 15 15 14 14 13 14 13 12 12
14 14 14 14 15 15 16 16 16 16 17 17 17 17 18 18 17 17 16 17 17 17 16 16 16 15 15 14 15 15 14 14 14 14 15 15 15 15 15 14 14 13 12
14 15 15 15 16 16 17 17 17 17 18 18 18 19 19 18 16 15 15 16 16 17 17 16 16 15 15 14 13 13 13 15 15 15 15 16 15 14 13 14 14 15 15
15 15 16 17 17 18 18 18 19 19 19 19 19 19 19 19 16 14 14 15 16 16 16 16 16 16 16 16 15 14 14 13 13 14 16 15 15 14 14 15 15 16 16
16 17 17 18 19 19 19 19 20 19 20 20 20 19 19 18 15 14 14 15 16 16 16 16 16 16 16 16 15 15 14 14 13 13 14 14 13 13 13 13 14 15 15
17 17 18 19 20 20 22 20 20 20 20 20 19 19 19 19 16 15 14 16 16 16 16 15 16 16 14 13 14 15 14 14 12 11 10 10 10 10 10 11 13 14 16
17 17 18 19 21 22 21 21 20 20 20 19 19 19 20 20 17 15 14 15 17 16 15 15 14 14 13 12 13 14 15 14 13 13 13 12 11 12 11 12 13 16 16
18 19 19 20 21 21 21 21 21 22 21 22 21 21 20 20 19 15 14 14 15 15 15 15 14 13 12 11 11 12 13 12 12 12 12 12 12 12 12 12 12 13 15
19 19 21 23 22 21 26 23 23 23 24 23 22 21 19 18 17 15 12 11 11 14 14 14 13 12 11 10 9 9 8 9 11 12 13 14 14 13 12 12 12 12 12
21 24 25 24 22 23 25 23 23 23 23 22 21 21 20 17 16 13 12 11 11 12 12 12 10 10 10 11 11 11 12 12 13 14 14 14 13 13 13 13 13 13 13
25 24 23 24 23 23 21 21 22 23 22 21 21 20 17 16 15 14 14 12 11 12 11 12 13 14 14 14 16 14 14 14 15 15 15 14 13 13 13 12 13 13 14
24 23 23 23 24 22 21 21 20 19 19 19 17 16 16 16 15 11 11 12 12 12 14 17 20 20 19 18 18 17 16 15 16 15 15 15 14 13 14 14 14 15 16
22 22 22 22 22 21 21 21 17 15 13 13 12 13 13 12 11 11 10 11 12 13 19 22 22 21 21 20 19 18 17 17 16 15 15 14 14 14 15 15 14 15 16
24 23 23 22 22 22 22 23 23 19 16 15 14 13 13 12 12 11 11 12 15 16 22 23 22 21 20 19 19 18 18 16 15 14 14 13 14 14 15 15 14 14 15
28 24 25 24 24 24 23 23 23 24 24 22 18 16 14 14 13 12 13 16 22 21 23 22 21 20 19 19 18 18 17 15 15 14 13 12 14 15 15 15 15 15 14
27 26 26 26 26 25 24 24 24 25 25 24 23 20 19 16 14 15 16 23 23 22 21 20 19 19 18 18 18 17 16 15 14 14 13 12 13 14 15 14 14 14 14
28 26 25 26 26 26 25 25 25 26 25 25 24 24 23 21 22 23 23 23 22 21 20 20 19 18 18 18 17 16 15 14 14 14 13 13 12 12 14 15 14 14 13
28 29 25 26 27 27 27 27 26 26 25 24 25 24 16 19 24 24 24 23 22 21 20 19 19 18 18 17 17 16 15 14 13 14 14 13 13 13 12 11 11 11 10
28 29 30 28 26 26 27 27 26 26 25 25 25 25 18 26 26 26 25 24 23 21 19 19 18 18 18 17 17 17 15 13 13 14 14 14 14 13 13 12 12 11 11
28 27 27 26 26 27 27 28 27 26 25 24 26 26 27 27 27 27 25 24 23 22 20 19 18 18 17 17 17 16 15 13 13 14 15 15 15 15 14 14 14 13 13
24 25 25 24 28 28 28 27 27 26 25 24 26 28 28 27 27 27 26 25 24 23 21 20 19 18 17 17 16 15 14 11 13 14 14 15 15 15 15 15 15 15 15
27 26 26 26 28 28 27 28 26 26 26 26 26 28 28 28 28 27 26 25 24 23 22 22 20 19 18 18 16 15 13 11 13 14 14 15 16 16 16 16 16 16 16
25 25 25 26 28 28 27 27 26 26 26 26 27 29 29 28 28 27 26 26 25 24 24 22 21 21 20 18 16 14 11 10 12 13 14 15 16 16 16 16 17 16 16

GFSGL_con_lsi_060.txt.gz
Lid_Strength_Index
12 12 12 12 12 12 12 12 12 12 13 13 13 13 13 13 13 13 13 13 13 13 12 12 12 12 12 12 12 12 12 13 14 13 12 12 11 11 10 10 10 11 10
11 11 12 12 12 12 12 12 12 13 13 13 13 14 13 13 13 14 14 14 14 14 13 13 13 13 13 13 12 13 13 12 13 15 13 13 13 12 11 11 11 10 11
11 11 12 12 12 12 13 13 13 13 14 14 14 14 14 15 15 15 15 14 14 14 14 14 14 14 15 14 14 14 13 13 13 13 14 12 12 12 12 12 12 11 10
12 12 12 12 12 13 13 14 14 14 14 14 14 15 15 15 15 15 15 15 14 14 14 14 14 15 15 15 15 15 15 15 14 14 14 14 13 12 12 13 13 11 11
12 12 12 12 13 13 14 14 15 15 15 15 16 16 16 16 15 15 15 15 15 15 14 14 14 14 14 14 14 15 14 14 14 15 15 14 14 14 14 14 14 13 12
12 12 12 13 14 14 15 16 16 16 16 16 16 16 16 16 15 14 14 14 14 15 15 14 14 14 14 13 13 13 13 15 15 15 15 15 15 15 13 14 14 15 17
12 13 13 14 15 16 16 16 16 16 16 17 17 17 17 16 15 14 13 14 14 14 14 15 15 14 14 15 14 13 13 12 12 13 15 14 14 14 14 14 14 14 15
13 14 15 15 16 16 17 17 17 17 17 17 17 17 16 16 14 13 13 14 14 14 14 15 15 15 14 14 14 14 14 13 12 12 12 12 12 11 11 12 12 12 12
14 15 15 16 17 17 18 17 17 17 17 17 16 16 17 16 15 14 14 14 15 15 14 14 14 14 13 12 13 13 13 12 11 10 10 9 9 9 9 10 12 13 14
14 14 15 16 18 18 17 18 17 17 17 16 16 17 17 18 15 14 13 13 15 14 14 13 11 12 11 10 11 12 14 13 12 12 11 10 10 10 10 10 11 14 14
14 15 17 17 18 18 18 17 18 18 17 18 18 17 17 17 16 14 12 13 13 13 12 12 11 10 10 9 9 10 11 10 10 10 10 10 9 9 9 9 10 11 13
16 16 17 19 18 17 19 18 18 18 18 18 18 17 15 15 14 13 12 11 11 12 11 11 10 9 9 10 10 10 10 10 12 12 12 12 12 11 11 10 10 10 10
17 19 20 20 19 18 18 18 17 17 18 17 17 17 16 14 13 12 12 11 10 10 10 10 10 11 11 12 13 12 13 14 14 15 15 14 13 12 11 12 11 11 11
19 19 20 19 18 18 17 17 17 17 17 17 17 16 15 13 13 12 11 9 9 9 10 12 13 14 14 14 15 15 15 15 16 16 15 14 12 12 13 12 13 13 13
19 18 17 17 18 17 17 16 16 15 16 16 15 13 14 14 13 10 10 10 10 11 12 15 16 17 17 17 17 17 16 16 16 15 14 14 14 13 13 12 12 12 13
18 17 16 17 17 17 17 16 14 13 12 12 11 12 12 11 10 9 9 9 9 11 15 17 18 18 18 17 17 16 16 15 15 14 14 14 13 13 12 11 11 12 14
16 16 17 17 17 17 17 17 17 15 15 14 13 13 12 11 10 10 10 10 12 13 17 18 18 18 18 17 17 16 16 15 15 14 13 13 13 12 12 12 12 13 13
18 19 17 17 17 17 17 17 18 18 18 17 15 15 13 12 11 11 11 13 17 17 18 18 18 17 17 17 16 16 15 15 14 13 13 13 13 12 12 12 12 13 13
19 18 18 18 18 18 18 18 18 19 19 18 17 16 16 14 13 13 14 18 19 19 18 18 17 17 16 16 15 15 15 15 14 13 12 12 12 12 13 12 11 12 13
20 20 19 19 19 19 19 19 19 19 19 19 18 17 17 17 15 17 18 19 19 19 18 18 17 17 16 16 15 15 15 15 14 13 12 13 12 13 13 12 12 12 11
19 20 20 19 20 19 20 20 19 19 20 19 18 17 15 15 16 19 20 20 19 19 19 18 18 17 16 16 15 15 16 15 14 12 13 13 13 14 13 12 12 11 11
19 19 20 20 19 20 20 20 20 20 20 20 19 18 15 17 19 20 20 20 19 19 19 19 18 17 17 16 16 15 16 15 14 12 13 14 14 14 14 13 13 13 12
20 20 21 21 20 21 21 21 21 21 20 19 19 19 19 19 20 21 21 20 20 20 19 19 19 19 17 16 15 15 15 14 13 12 13 14 14 14 14 15 14 14 14
20 21 20 20 20 20 21 21 20 21 21 20 19 19 20 20 21 22 22 21 21 20 20 19 19 20 19 18 16 15 14 14 11 12 13 14 14 14 15 15 15 15 15
21 21 21 21 21 21 21 21 21 21 21 21 21 20 20 21 22 23 22 22 22 22 21 21 20 20 20 20 20 18 16 14 11 13 13 13 14 14 15 15 15 15 15
21 21 21 21 21 22 22 22 22 22 22 21 22 22 22 22 23 23 23 23 23 23 22 22 21 21 21 20 18 17 15 13 10 13 13 13 14 14 15 15 15 15 15

GFSGL_con_lsi_063.txt.gz
Lid_Strength_Index
12 12 12 12 12 12 12 12 12 13 13 13 14 14 13 14 13 14 13 13 14 13 13 13 13 13 13 13 12 12 13 13 15 14 12 12 12 12 11 11 11 11 11
12 11 12 12 12 12 12 13 13 14 14 14 14 14 14 14 14 14 15 14 15 14 14 14 14 13 14 13 13 14 14 13 14 16 14 14 13 12 12 12 12 11 12
11 11 12 12 12 12 13 13 14 14 14 14 14 14 15 15 15 15 15 15 14 14 14 14 14 14 14 14 14 15 14 14 15 16 16 15 14 13 13 13 12 12 11
11 11 12 12 12 12 13 14 15 15 14 15 15 15 15 15 15 15 15 15 14 14 13 13 13 14 14 14 14 15 14 15 15 15 16 16 15 14 14 15 14 13 14
11 12 12 12 12 13 14 15 15 15 15 16 16 15 15 15 15 15 15 15 14 14 13 13 13 13 12 13 14 14 14 15 15 15 16 16 15 15 15 15 16 15 15
12 12 12 13 14 15 15 16 16 16 15 15 15 15 15 15 14 14 14 14 14 14 14 13 13 13 13 12 12 12 12 14 16 16 16 17 16 15 14 15 15 16 18
12 13 14 14 15 15 16 16 16 16 15 16 16 16 16 15 14 13 13 14 14 14 14 14 14 13 13 14 13 12 12 12 11 13 15 14 15 14 14 15 15 15 15
13 14 14 15 15 15 16 16 16 16 16 16 16 16 16 15 14 13 13 13 14 14 13 14 14 14 13 13 13 13 13 12 12 12 12 12 12 12 12 12 12 12 12
14 14 15 15 15 15 16 16 16 16 16 16 16 16 16 16 14 13 13 14 14 14 13 13 13 13 11 10 12 12 12 11 9 8 8 8 8 8 8 10 12 13 14
14 14 14 15 16 16 16 16 16 16 16 16 16 16 16 16 15 13 13 13 14 13 12 12 10 11 10 9 10 11 12 11 10 10 10 9 9 9 8 9 11 14 14
13 14 15 15 16 16 16 16 17 17 17 17 17 16 16 15 15 13 12 12 13 13 12 12 11 9 8 8 8 11 12 10 11 12 12 12 12 11 11 10 9 10 12
14 15 16 17 16 17 18 18 18 18 18 17 16 16 14 13 13 12 11 10 10 12 12 11 10 9 9 9 10 10 10 11 14 15 15 14 14 13 12 11 11 11 10
16 17 18 18 17 17 18 18 17 16 16 15 15 15 14 13 12 11 11 10 10 11 10 9 9 9 10 12 11 11 13 15 15 16 17 16 15 14 13 13 12 11 11
17 18 18 19 18 18 17 16 16 15 15 15 15 15 14 13 12 11 12 11 10 9 9 10 11 11 11 12 14 14 15 15 16 17 16 15 14 14 14 13 13 13 13
17 18 17 17 17 17 16 15 15 14 14 15 15 14 13 13 12 10 10 10 10 8 10 12 14 15 15 15 15 15 15 16 16 16 16 16 15 14 14 12 12 12 14
17 17 16 16 17 16 15 15 13 12 12 11 10 10 11 10 9 9 8 8 7 8 12 15 16 16 16 16 16 16 16 16 15 15 15 15 14 14 14 13 12 12 13
15 15 15 16 15 16 16 16 16 13 12 12 11 10 10 10 10 9 9 8 8 10 16 16 16 16 16 16 16 16 16 15 15 15 15 15 14 13 14 13 13 13 13
15 16 15 15 15 15 15 15 16 16 16 15 13 13 12 11 10 10 9 10 15 14 16 17 17 17 17 17 17 16 16 15 15 15 15 15 13 13 14 14 14 14 13
16 17 16 15 16 16 16 16 17 17 18 17 16 15 14 13 12 11 10 16 17 17 17 17 17 17 17 17 17 16 16 16 15 15 15 14 13 14 14 14 14 14 13
17 17 17 17 17 18 18 18 18 18 18 18 18 17 16 18 18 15 16 16 17 17 17 18 18 18 17 17 17 16 16 16 15 15 15 13 13 14 15 15 14 15 14
17 18 18 18 18 18 18 18 18 18 18 18 18 16 14 18 16 16 17 17 17 18 18 18 18 18 18 18 17 17 17 16 16 15 14 14 14 15 14 14 15 14 14
17 18 19 18 18 18 19 19 19 19 19 19 18 17 14 16 18 18 18 18 18 18 18 19 19 19 18 18 18 18 17 17 16 15 14 14 14 14 14 15 15 15 15
18 18 18 19 19 19 19 20 20 19 20 19 19 19 18 18 18 19 19 19 19 19 19 19 20 20 19 19 18 18 18 17 16 15 14 14 15 15 15 15 16 16 16
19 19 19 19 18 19 19 19 19 19 20 20 19 18 18 19 19 20 20 20 20 19 20 21 21 21 21 21 20 19 18 18 16 16 14 15 15 16 16 16 16 16 16
19 19 19 19 19 19 19 19 20 20 19 19 19 19 19 19 20 20 21 21 21 21 22 22 22 22 23 23 22 22 21 18 17 15 14 18 19 18 17 17 17 16 16
20 20 20 19 20 20 20 21 21 20 20 20 19 19 20 20 20 21 22 22 22 22 23 23 23 24 24 23 23 21 18 16 16 14 12 16 20 19 20 19 18 17 17

GFSGL_con_lsi_069.txt.gz
Lid_Strength_Index
15 15 15 15 15 16 16 17 17 17 17 17 17 17 17 18 18 18 18 18 19 18 18 18 18 17 18 17 16 16 16 16 18 17 16 15 16 16 15 14 14 14 14
15 15 15 15 16 16 17 17 17 17 17 17 17 17 17 18 18 18 19 19 19 19 18 18 18 16 17 16 16 17 16 16 17 18 17 16 16 15 15 16 15 13 14
15 15 16 16 17 17 17 18 17 18 18 18 18 17 18 18 18 18 18 18 19 18 18 17 17 17 16 16 17 17 16 15 16 17 17 15 15 14 15 14 14 14 13
15 16 17 17 17 17 17 18 18 18 18 18 18 18 18 18 18 18 18 18 18 18 16 16 16 16 16 16 16 16 15 16 15 16 16 15 14 13 14 15 15 14 14
16 16 17 17 17 17 17 17 18 18 18 18 18 18 19 19 18 18 17 17 17 16 16 15 15 15 14 14 14 15 15 15 15 15 15 15 15 15 15 14 15 14 13
16 16 16 16 16 17 17 18 18 18 18 18 18 19 19 18 15 15 15 16 16 16 16 16 15 15 15 13 12 12 11 13 14 14 14 15 14 13 13 14 14 15 16
16 16 16 16 16 17 17 18 18 18 18 19 19 19 19 19 15 14 14 15 15 16 16 15 15 14 15 14 13 11 10 9 9 10 12 13 13 12 12 13 13 13 14
16 15 15 16 16 17 18 18 18 18 19 19 19 19 19 18 14 14 13 15 16 15 15 15 15 15 14 12 12 11 10 10 10 10 11 11 10 9 9 10 11 11 11
15 15 15 16 17 18 18 18 18 18 19 19 18 19 19 18 14 13 14 15 15 15 14 14 14 13 11 9 10 11 12 12 10 8 8 8 8 8 9 11 14 14 15
14 14 15 15 16 17 17 18 18 18 19 18 17 19 18 21 15 13 13 15 19 15 14 13 10 11 9 8 9 12 15 13 11 12 12 12 11 12 10 12 13 15 15
14 15 15 15 16 16 17 18 19 19 18 19 19 20 21 19 19 13 12 14 15 16 14 13 11 9 8 7 7 12 12 10 13 14 15 14 14 13 13 13 13 14 16
16 16 16 16 16 17 17 19 19 19 20 22 23 22 20 18 16 13 11 10 11 16 15 12 11 8 7 7 9 9 8 10 15 16 16 16 15 14 14 13 13 13 13
16 16 16 17 17 17 18 19 20 22 21 22 20 21 19 17 17 11 10 9 9 12 12 10 7 7 8 10 10 9 12 16 16 17 16 15 14 14 13 14 13 12 12
16 18 18 18 19 19 18 19 20 21 21 20 20 19 19 18 16 16 15 15 11 11 10 12 11 9 10 11 14 13 14 15 15 16 16 14 14 14 15 14 15 14 14
17 18 19 19 19 21 20 20 19 19 18 20 19 19 20 20 17 14 15 17 16 13 12 16 18 20 18 17 17 16 16 15 16 16 16 16 15 15 15 14 14 14 15
19 20 20 20 21 20 20 22 14 14 13 12 12 17 19 13 11 10 9 8 7 7 16 20 22 21 19 18 19 18 16 16 16 16 16 16 16 16 15 14 13 15 16
18 19 20 20 20 20 20 19 20 18 11 11 10 9 10 12 9 8 8 7 7 7 17 21 23 21 20 18 19 18 17 16 17 17 17 17 16 16 16 15 15 15 16
22 21 20 19 19 19 19 19 19 19 18 17 12 10 9 9 8 8 8 8 15 17 20 21 23 21 21 20 20 20 19 18 18 18 18 18 18 17 17 16 16 16 16
21 20 20 20 20 20 20 21 21 21 23 22 21 16 14 12 10 9 9 16 18 20 19 21 20 23 21 22 21 22 21 19 19 19 19 18 18 17 17 16 16 16 16
24 21 21 21 22 22 21 21 22 22 22 22 19 18 17 20 22 21 22 23 22 19 18 21 22 24 23 23 24 24 23 24 22 23 19 19 18 18 17 17 17 17 17
22 22 21 22 23 23 23 22 21 20 19 19 19 18 14 20 22 21 20 19 18 18 19 22 25 23 21 22 26 25 24 21 22 22 19 19 18 19 18 17 17 17 17
22 23 23 23 23 22 21 20 19 19 20 21 23 23 15 19 23 24 25 23 22 22 21 24 24 22 20 21 22 24 24 24 25 26 20 20 20 19 18 17 18 18 18
23 24 24 24 23 21 20 21 22 23 26 28 27 26 28 28 28 27 26 26 25 22 20 19 20 20 23 21 22 22 23 23 24 28 22 22 21 20 19 18 17 19 19
23 22 21 21 21 22 24 27 28 27 28 28 30 30 29 29 28 27 26 25 25 25 24 21 20 20 21 21 22 23 26 24 27 24 27 23 22 20 19 17 17 19 19
21 22 23 23 26 27 28 30 28 29 30 29 29 30 30 29 28 27 26 26 25 24 22 21 21 22 22 23 22 24 28 22 24 23 24 25 23 21 19 16 18 20 20
25 26 27 27 29 27 25 28 31 29 30 29 29 30 30 28 26 26 26 26 24 23 23 21 22 23 23 23 24 25 22 20 21 22 23 22 21 19 18 18 20 20 20

GFSGL_con_lsi_072.txt.gz
Lid_Strength_Index
15 15 16 16 16 17 17 17 17 17 18 18 18 19 19 19 19 19 20 20 20 20 19 19 19 18 19 19 18 18 18 18 20 18 17 16 16 16 15 15 14 15 14
15 16 16 16 17 17 18 18 18 18 18 18 19 19 19 19 19 19 19 20 20 19 19 19 19 18 19 19 19 18 18 17 18 19 17 16 16 15 15 16 14 13 14
16 16 17 17 17 18 18 18 18 19 19 19 19 19 19 19 19 19 19 19 20 19 19 19 19 19 19 18 18 18 17 16 17 17 18 16 16 15 15 15 14 13 12
16 17 17 17 18 18 18 18 19 19 19 19 19 19 19 19 19 19 19 19 19 19 18 18 19 19 18 18 17 16 16 16 16 17 16 16 15 14 14 14 14 12 12
17 17 17 17 17 18 18 19 19 19 19 19 19 19 19 19 19 19 19 19 19 19 18 18 17 17 15 15 15 15 15 17 16 16 16 15 15 14 14 12 13 13 12
16 17 17 17 17 18 18 19 19 19 19 18 19 19 20 19 16 15 17 18 18 18 18 18 17 16 16 14 13 12 12 14 15 15 13 14 14 13 12 13 13 14 16
16 16 17 17 17 18 18 19 18 18 18 19 19 19 19 19 14 14 15 17 18 18 17 17 16 15 15 15 14 12 11 10 9 11 14 13 13 12 12 13 13 13 13
16 16 16 17 17 18 18 18 18 18 19 19 18 18 18 18 14 14 14 17 17 17 17 16 16 15 15 14 14 13 11 11 11 10 10 10 11 11 11 11 12 13 13
16 16 16 16 17 18 18 18 18 18 18 18 18 18 18 19 14 13 14 17 16 16 16 16 15 15 13 11 11 14 13 12 10 8 8 8 8 8 9 11 15 16 17
15 15 15 15 16 17 17 18 17 17 17 18 18 18 18 19 14 13 13 16 19 17 16 14 12 13 11 9 11 16 19 13 11 13 13 11 11 11 10 11 13 16 17
14 14 15 15 15 16 16 17 17 18 18 19 19 20 20 20 19 13 11 15 17 18 16 15 13 11 9 8 7 13 14 10 15 15 15 14 13 12 12 12 11 13 16
14 15 15 15 15 15 16 17 18 18 19 19 20 21 20 19 17 14 12 11 12 17 16 14 13 9 8 7 8 8 8 10 19 19 17 16 14 13 13 12 12 12 12
15 16 16 16 15 15 16 18 18 17 17 19 20 20 20 19 19 13 12 10 9 12 13 12 10 8 7 9 10 9 13 18 19 20 17 15 14 13 12 13 12 12 12
16 17 17 16 17 17 16 16 16 18 18 19 20 20 20 20 18 17 16 15 12 11 10 12 11 9 8 10 14 13 15 16 17 16 16 14 13 14 14 14 15 14 14
17 18 18 16 17 17 17 17 16 18 16 19 19 19 20 20 17 15 16 19 20 16 16 21 19 16 17 17 18 17 17 17 17 16 16 16 15 15 15 14 15 15 16
18 18 17 18 19 19 20 23 15 16 13 13 13 17 21 14 12 11 10 10 9 9 11 17 17 16 17 18 19 19 18 18 17 17 17 16 16 16 16 16 15 15 16
18 20 20 20 20 20 20 20 20 18 12 11 10 10 11 14 11 10 9 8 7 7 10 18 17 17 18 18 19 19 18 16 18 18 17 17 17 17 17 17 16 16 17
22 20 20 20 20 20 20 20 20 19 18 20 12 10 9 8 8 8 7 7 11 15 19 17 19 18 19 20 19 19 19 19 20 20 19 18 19 18 18 19 17 17 17
21 22 21 22 22 22 22 22 22 23 23 23 22 16 15 12 11 10 9 15 18 20 20 20 21 20 19 19 19 20 21 20 22 23 23 21 20 19 19 19 18 17 17
25 22 22 22 23 23 22 22 23 23 22 22 21 18 17 19 23 20 20 22 22 21 20 22 21 20 20 21 22 23 23 23 22 23 23 21 20 19 19 19 19 18 18
25 24 22 24 23 23 23 22 21 22 21 20 19 18 15 20 21 21 22 22 21 19 22 25 27 26 27 26 26 23 24 22 22 22 23 22 23 21 21 19 19 18 18
23 23 24 24 24 23 24 22 20 20 20 20 21 21 14 24 26 27 28 29 28 29 28 27 28 27 24 21 21 21 21 22 22 22 22 22 24 24 22 20 20 18 18
25 25 25 26 24 23 23 22 20 20 21 22 23 27 29 30 31 33 32 30 30 28 27 29 27 26 25 21 20 20 21 22 21 22 25 26 24 25 25 22 21 19 18
25 25 24 24 22 22 21 21 22 24 25 27 30 31 31 32 32 31 30 31 32 29 29 28 25 23 23 24 23 22 22 23 23 23 25 26 24 25 26 23 21 19 17
25 24 24 23 22 22 23 24 27 28 27 25 28 30 31 31 32 31 30 30 30 30 27 27 27 26 26 24 22 22 23 20 21 23 29 28 27 27 26 24 22 20 19
23 22 23 24 25 25 25 25 24 23 23 24 26 28 28 30 30 30 29 30 28 27 27 27 27 27 26 24 22 22 20 19 20 22 25 27 27 26 24 23 21 20 20

GFSGL_con_lsi_075.txt.gz
Lid_Strength_Index
15 15 15 16 16 17 17 18 18 18 18 18 19 19 19 19 19 20 20 20 20 20 20 20 20 19 20 21 20 20 20 20 22 20 19 18 18 17 16 15 14 14 14
15 15 16 16 17 17 18 18 18 18 19 19 19 19 19 20 20 20 20 20 20 20 20 20 20 19 21 20 20 20 20 20 20 21 19 18 17 16 15 15 14 13 13
15 16 16 17 18 18 18 18 18 19 19 19 19 19 20 20 20 20 20 20 20 20 20 20 20 20 20 20 20 20 19 18 19 19 19 16 15 14 14 14 14 14 12
16 16 17 18 18 18 18 19 19 19 19 19 19 20 20 20 20 19 19 20 20 20 19 20 20 20 20 20 19 19 18 18 17 17 17 16 15 14 15 15 16 14 13
16 17 17 18 18 18 19 19 19 19 19 19 20 20 20 20 19 18 18 19 19 19 20 19 19 19 17 17 17 18 17 18 17 16 16 15 15 16 16 14 15 14 13
16 17 17 18 18 18 19 19 19 19 20 19 19 20 20 19 15 15 17 18 18 19 19 19 19 18 18 16 15 13 13 16 21 20 15 16 16 15 13 14 14 15 17
17 17 17 18 18 18 18 19 19 19 19 19 20 20 20 19 14 14 15 17 18 18 19 18 18 17 17 17 15 13 12 11 10 12 16 15 14 13 13 13 13 14 14
16 17 17 17 18 18 19 19 19 19 19 19 19 19 19 18 13 13 14 17 18 18 18 18 18 17 17 16 16 15 13 13 12 12 12 12 11 11 11 12 12 14 13
17 17 17 17 17 18 18 18 18 18 19 19 18 18 18 18 13 13 14 17 17 17 18 17 17 17 15 13 13 13 13 13 11 9 8 8 8 8 9 11 15 15 16
16 16 16 16 16 17 18 18 17 18 18 18 18 18 18 18 14 13 13 17 18 18 17 16 14 15 13 11 12 15 16 15 13 15 13 12 11 12 9 11 12 15 15
15 15 16 15 16 16 16 17 18 18 18 18 18 18 18 18 18 12 12 16 18 18 17 17 15 12 10 9 8 13 14 11 15 17 16 15 14 13 12 11 11 12 14
15 15 15 15 15 16 16 17 17 17 18 18 19 19 19 19 18 14 11 11 13 18 18 16 15 11 10 9 8 8 8 9 21 22 20 17 15 14 13 12 11 11 11
14 14 14 14 14 15 16 17 17 17 17 18 19 18 18 18 18 13 12 10 10 13 15 14 11 10 9 9 10 8 12 19 20 22 19 16 15 14 13 13 12 11 11
14 14 14 15 15 16 16 16 16 16 16 16 17 16 17 19 19 18 17 15 11 10 10 11 10 10 9 10 15 12 15 17 18 18 17 15 14 15 16 14 15 14 14
15 16 16 15 16 17 16 16 16 15 14 16 16 15 18 20 18 16 16 19 17 16 19 23 21 19 16 15 16 17 17 17 18 18 18 18 17 16 16 14 15 16 16
19 19 18 18 18 18 18 21 13 14 12 11 13 17 22 15 12 11 10 10 11 10 14 18 17 15 14 14 16 17 17 17 16 17 18 18 17 17 17 16 15 17 17
17 19 19 19 18 19 19 18 20 19 13 12 12 12 12 14 11 10 10 9 8 8 11 11 13 14 15 15 16 17 18 17 16 17 17 18 18 18 18 17 17 17 17
21 20 19 19 19 20 19 19 19 19 19 22 13 11 10 10 10 10 9 8 10 10 15 16 17 16 16 17 18 18 19 18 18 18 19 19 20 20 19 19 18 19 18
22 22 23 23 24 22 23 23 22 22 21 22 24 17 16 8 8 8 9 17 17 19 19 18 19 19 19 19 19 19 20 20 20 21 22 21 20 21 20 20 18 18 18
26 23 23 24 25 24 23 22 23 22 21 19 19 18 23 22 23 20 19 19 19 20 21 21 21 22 22 24 25 25 25 29 27 25 22 21 20 20 19 19 19 19 19
25 24 23 25 23 23 22 22 22 22 22 24 25 22 15 20 21 20 19 20 23 25 26 28 29 30 31 32 33 32 30 26 24 22 21 21 21 21 20 19 20 20 20
26 27 28 27 27 25 26 24 24 24 24 23 25 22 12 20 21 21 23 23 28 30 28 30 31 32 30 30 29 27 25 23 25 22 21 21 22 22 22 21 24 22 21
25 26 27 28 27 26 26 27 25 25 25 25 24 21 21 22 23 24 30 27 27 27 31 35 34 32 30 28 27 24 23 23 24 22 22 23 23 23 24 25 25 24 23
27 26 26 27 27 26 26 26 25 23 22 22 22 22 23 24 26 27 26 27 29 30 35 35 34 30 29 28 28 26 25 24 24 22 23 23 23 23 26 29 26 25 23
27 26 26 26 26 25 24 24 23 24 23 23 23 23 24 24 24 25 25 26 30 30 29 31 31 30 29 28 27 29 27 22 22 21 23 24 24 25 30 32 27 26 24
27 27 28 27 25 23 23 23 23 22 23 23 23 23 23 24 24 25 29 30 29 29 30 31 30 29 28 27 27 25 22 19 20 20 22 24 26 28 31 29 28 25 24